Regional Weather Roundup
Issued by NWS

Home | Current Version | Previous Version | Text Only | Print | Product List | Glossary Off
Versions: 1 2 3 4 5 6 7 8 9 10 11 12 13 14 15 16 17 18 19 20 21 22 23 24 25 26 27 28 29 30 31 32 33 34 35 36 37 38 39 40 41 42 43 44 45 46 47 48 49 50

000
ASUS43 KDMX 241601
RWRIA

WEATHER ROUNDUP FOR IOWA
NATIONAL WEATHER SERVICE DES MOINES IA
1100 AM CDT MON APR 24 2017

NOTE: "FAIR" INDICATES FEW OR NO CLOUDS BELOW 12,000 FEET WITH NO
SIGNIFICANT WEATHER AND/OR OBSTRUCTIONS TO VISIBILITY.

* - THESE STATIONS ARE NOT NWS STATIONS...THUS NOT UNDER NWS
QUALITY CONTROL.  THEY ALSO DO NOT REPORT WEATHER SUCH
AS PRECIPITATION OR FOG.

IAZ001>003-012>014-020>022-031>034-043>046-241700-
   NORTHWEST IOWA

CITY           SKY/WX    TMP DP  RH WIND       PRES   REMARKS
CARROLL *      MOSUNNY   66  34  30 S28G39    29.73F
CHEROKEE *     PTSUNNY   63  34  34 S24G35    29.69F
DENISON *      MOSUNNY   64  34  32 S23G40    29.73S
LE MARS *      CLOUDY    61  36  39 S28G36    29.65F
ORANGE CITY *  CLOUDY    61  36  39 S25G36    29.65S
SHELDON *      CLOUDY    61  32  33 S29       29.64F
SIOUX CITY     CLOUDY    63  38  39 S22       29.65F
SPENCER        CLOUDY    63  32  31 S32G41    29.68F
STORM LAKE *   MOSUNNY   63  32  31 S35G44    29.69F
$$

IAZ055>058-069>071-079>083-090>094-241700-
   SOUTHWEST IOWA

CITY           SKY/WX    TMP DP  RH WIND       PRES   REMARKS
ATLANTIC *     MOSUNNY   64  34  32 S24G39    29.73F
AUDUBON *      MOSUNNY   64  28  25 S24G33    29.75F
CLARINDA *     MOSUNNY   66  34  30 S29G40    29.76F
COUNCIL BLFS * MOSUNNY   63  36  36 S23G36    29.69F
CRESTON *      SUNNY     64  34  32 S32G38    29.79F
HARLAN  *      MOSUNNY   64  34  32 S21G39    29.75S
LAMONI         SUNNY     66  32  28 S22G31    29.82F
RED OAK *      MOSUNNY   66  36  32 S29G37    29.73F
SHENANDOAH *   MOSUNNY   66  34  30 S30G43    29.72F
$$

IAZ047>049-059>061-072>074-084-241700-
   CENTRAL IOWA

CITY           SKY/WX    TMP DP  RH WIND       PRES   REMARKS
AMES           MOSUNNY   66  33  29 S23G38    29.79F
ANKENY *       SUNNY     66  32  28 S22G32    29.81F
BOONE *        PTSUNNY   66  30  26 S20G33    29.78F
CHARITON *     SUNNY     66  32  28 S26G39    29.83F
DES MOINES     CLOUDY    68  31  25 S26G36    29.81F
GRINNELL*      SUNNY     67  28  23 S26G35    29.86F
KNOXVILLE *    SUNNY     66  32  28 S18G30    29.82F
MARSHALLTOWN   SUNNY     67  32  27 S28G35    29.82F
NEWTON *       SUNNY     68  28  22 S30G38    29.82F
PELLA *        SUNNY     68  26  20 S25G33    29.86F
PERRY *          N/A     67  27  22 S26G32    29.77F
$$

IAZ004>006-015-016-023>025-035-036-241700-
   NORTH CENTRAL IOWA

CITY           SKY/WX    TMP DP  RH WIND       PRES   REMARKS
ALGONA *       MOSUNNY   64  34  32 S32G46    29.74F
CLARION *      MOSUNNY   66  32  28 S30G39    29.77F
ESTHERVILLE    CLOUDY    61  35  37 S31G38    29.70F
FORT DODGE *   PTSUNNY   64  34  32 S24G33    29.78F
MASON CITY     MOSUNNY   65  33  30 S28G38    29.80F
FOREST CITY *    N/A     64  32  29 S29G41    29.77F
WEBSTER CITY * PTSUNNY   66  32  28 S26G37    29.75F
IOWA FALLS *     N/A     67  31  26 S29G39    29.82F
$$

IAZ007>011-017>019-026>030-037>042-050>054-066-241700-
   NORTHEAST IOWA

CITY           SKY/WX    TMP DP  RH WIND       PRES   REMARKS
CEDAR RAPIDS   SUNNY     67  34  29 S20G31    29.88F
CHARLES CITY * PTSUNNY   66  28  24 S24G37    29.83F
CLINTON *      SUNNY     67  38  34 S16       29.95F
DECORAH *      CLOUDY    63  34  34 S13G24    29.85F
DUBUQUE        CLOUDY    65  33  30 S20G29    29.93F
MONTICELLO *   SUNNY     68  30  24 MISG      29.90F
OELWEIN *      MOSUNNY   68  28  22 S25G36    29.86F
WATERLOO       SUNNY     68  29  23 S28G36    29.84F
$$

IAZ064-065-067-068-078-241700-
   EAST CENTRAL IOWA

CITY           SKY/WX    TMP DP  RH WIND       PRES   REMARKS
DAVENPORT      SUNNY     69  31  24 S18       29.94F
IOWA CITY      SUNNY     69  37  30 S21G31    29.91F
MUSCATINE *    CLOUDY    68  36  30 S18       29.92F
QUAD CITIES    CLOUDY    69  34  27 SE14G21   29.93F
$$

IAZ062-063-075>077-085>089-095>099-241700-
   SOUTHEAST IOWA

CITY           SKY/WX    TMP DP  RH WIND       PRES   REMARKS
BURLINGTON     MOSUNNY   67  35  30 S14G22    29.94F
FAIRFIELD *    SUNNY     68  32  26 S20G28    29.90F
FORT MADISON * CLOUDY    70  36  28 S12       29.94F HAZE
KEOKUK *       CLOUDY    68  32  26 S12G17    29.93F
OSKALOOSA *      N/A     68  30  24 S25G32    29.87F
OTTUMWA        SUNNY     69  31  24 S22G36    29.87F
WASHINGTON *   SUNNY     68  32  26 S22G29    29.91F
$$

ABBREVIATIONS USED IN REMARKS
   TC - TEMPERATURES IN CELSIUS
  WCI - WIND CHILL INDEX
   HX - HEAT INDEX
  VSB - VISIBILITY
$$





USA.gov is the U.S. government's official web portal to all federal, state and local government web resources and services.